Regional Weather Roundup
Issued by NWS

Home | Current Version | Previous Version | Text Only | Print | Product List | Glossary On
Versions: 1 2 3 4 5 6 7 8 9 10 11 12 13 14 15 16 17 18 19 20 21 22 23 24 25 26 27 28 29 30 31 32 33 34 35 36 37 38 39 40 41 42 43 44 45 46 47 48
000
ASUS44 KBMX 291610
RWRAL

ALABAMA REGIONAL WEATHER ROUNDUP
NATIONAL WEATHER SERVICE BIRMINGHAM AL
1100 AM CDT FRI MAY 29 2015

NOTE: "FAIR" INDICATES FEW OR NO CLOUDS BELOW 12,000 FEET
WITH NO SIGNIFICANT WEATHER AND/OR OBSTRUCTIONS TO VISIBILITY.

THE REMARK "TC" DENOTES TEMPERATURE IN DEGREES CELSIUS.

ALZ001>011-014-016>018-020-291700-
NORTH ALABAMA

CITY           SKY/WX    TMP DP  RH WIND       PRES   REMARKS
MUSCLE SHOALS  CLOUDY    76  67  73 S7        30.18S
HUNTSVILLE     PTSUNNY   77  67  71 SE13      30.19F
DECATUR        PTSUNNY   75  68  78 S7        30.20S
HALEYVILLE     CLOUDY    72  69  90 CALM      30.22S
GADSDEN        PTSUNNY  N/A N/A N/A W10       30.21R
$$

ALZ012-013-022-023-030>036-040>044-291700-
WEST CENTRAL ALABAMA

CITY           SKY/WX    TMP DP  RH WIND       PRES   REMARKS
TUSCALOOSA     PTSUNNY   80  69  69 E6        30.17F
$$

ALZ015-024>027-033>036-040>044-291700-
CENTRAL ALABAMA

CITY           SKY/WX    TMP DP  RH WIND       PRES   REMARKS
BIRMINGHAM     PTSUNNY   76  69  79 S5        30.21F
MONTGOMERY     SUNNY     81  71  71 VRB3      30.18S
SHELBY CO ARPT MOSUNNY   76  69  79 VRB6      30.20S
MAXWELL AFB    SUNNY     80  70  70 SE5       30.17S
GREENVILLE     FAIR      82  67  60 S7        30.17S
$$

ALZ019-021-028-029-037-038-045>048-291700-
EAST CENTRAL ALABAMA

CITY           SKY/WX    TMP DP  RH WIND       PRES   REMARKS
ANNISTON       CLOUDY    76  68  76 E6        30.21S
ALEXANDER CITY PTSUNNY   77  68  72 SE3       30.21S
AUBURN         NOT AVBL
$$

ALZ051>064-291700-
SOUTHWEST ALABAMA

CITY           SKY/WX    TMP DP  RH WIND       PRES   REMARKS
MOBILE         MOSUNNY   81  71  71 SE12      30.15R
BROOKLEY FIELD MOSUNNY   82  72  71 E8        30.15S
EVERGREEN      MOSUNNY   82  68  62 SE9       30.17S
$$

ALZ049-050-065>069-291700-
SOUTHEAST ALABAMA

CITY           SKY/WX    TMP DP  RH WIND       PRES   REMARKS
DOTHAN         MOSUNNY   80  67  64 E5        30.21F
OZARK          MOSUNNY   82  69  66 SE5       30.17F
TROY           SUNNY     81  70  69 E6        30.19S
EUFAULA        FAIR      82  67  60 CALM      30.18F
$$



USA.gov is the U.S. government's official web portal to all federal, state and local government web resources and services.